COSMOS 1135

Satellite information

Favourite Embed

Satellite Type and Status

PAYLOADIN ORBIT

Key statistics

Satellite COSMOS 1135 at a glance.

Uptime

16667

Days in orbit

Revolutions

≈ 12.5

Per day

Orbit

LEO

Low Earth Orbit

Inclination

74.0

Latest

Satellite identification and parameters

Extended collection of information and parameters for COSMOS 1135.

Object identification

Identified? True

Debris? False

Object name: COSMOS 1135

International designator: 1979-084F

Object number (NORAD): 11543

Object ID (CCSDS): 11543

Country: COMMONWEALTH OF INDEPENDENT STATES (CIS)

Current information (Y/N): Y

RCS size: MEDIUM

Orbital parameters

Period: 115.468 minutes

Inclination: 74.0243 deg

SMA: 7854.8 km

Apoapsis: 1491.542 km

Periapsis: 1461.788 km

RAAN: 258.2147 deg

Eccentricy: 0.001894

Argument of periapsis: 114.9468 deg

Mean anomaly: 257.1343 deg

Mean motion: 12.47096446 rev/day

Mean motion (dot): -0.00000021 rev/day2

B* drag term: -0.000036743 1/REarth

Two-line elements (TLE)

Creation date: May 12, 2025, 7:41 p.m.

Reference frame: TEME

Reference center: EARTH

Epoch: May 12, 2025, 3:36 p.m. UTC

TLE line 0: 0 COSMOS 1135

TLE line 1: 1 11543U 79084F 25132.65033545 -.00000021 00000-0 -36743-4 0 9998

TLE line 2: 2 11543 74.0243 258.2147 0018940 114.9468 257.1343 12.47096446 77259

Live tracking on map

Real-time ground track for satellite COSMOS 1135.

In-orbit conjunctions

There are no conjunctions computed for COSMOS 1135, at the moment. Check back to stay up to date, as we update our databases every day.

Go to all conjunctions

Associated space launch

Biological research satellite carrying live organisms

COSMOS 1135 was lifted into orbit during the mission ‘Soyuz U | Bion 5’, on board a Soyuz U space rocket.

The launch took place on Sept. 25, 1979, 3:30 p.m. from 41/1.

For more information about the launch, click the button.

Launch to space Soyuz U | Bion 5
Soyuz U | Bion 5

Agency: N/A

Status: Launch Successful

Launch date: Sept. 25, 1979, 3:30 p.m. UTC

Rocket: Soyuz U

Launch pad: 41/1

Location: Plesetsk Cosmodrome, Russian Federation

...

Latest news about this satellite

There are no fresh news available about this satellite. Check back as we update our databases every day.


Newsletter sign-up

Weekly statistics, charts and insights to help you stay on top of the space industry.